Torna al catalogo

ASTRO H

AttivoScienzaVLEO
NORAD 41337·PAYLOAD·🇯🇵 Japan

Lanciato Feb 17, 2016 da Tanegashima Space Center

Loading…

Prossimi Passaggi (prossime 24 ore)

TLE

AggiornatoSource: Space-Track

Epoca: Sep 14, 2026, 13:29 UTC

1 41337U 16012A   26257.56246678  .00002306  00000-0  12952-3 0  9997
2 41337  30.9981 216.8109 0009316  72.9877 287.1781 15.10863322580813

Traccia ASTRO H in tempo reale con AllMySat

Download on the App Store